| time (UTC) | temp C | wind direction | speed KPH | gust KPH | rain 1hr cm | rain 24hr cm | rain mn cm | humidity % | barometer mb |
| 20260831051003 | 26 | 219 | 0.0 | 0.0 | 0.00 | 0.00 | 0.00 | 83 | 1016.0 |
| 20260831050512 | 26 | 218 | 0.0 | 0.0 | 0.00 | 0.00 | 0.00 | 83 | 1015.8 |
| 20260831050025 | 26 | 210 | 0.0 | 0.0 | 0.00 | 0.00 | 0.00 | 82 | 1015.7 |
| 20260831045503 | 26 | 210 | 0.0 | 1.6 | 0.00 | 0.00 | 0.00 | 82 | 1015.9 |
| 20260831045010 | 26 | 210 | 0.0 | 1.6 | 0.00 | 0.00 | 0.00 | 82 | 1015.9 |
| 20260831044511 | 26 | 210 | 0.0 | 0.0 | 0.00 | 0.00 | 0.00 | 82 | 1015.8 |
| 20260831044013 | 26 | 210 | 0.0 | 0.0 | 0.00 | 0.00 | 0.00 | 81 | 1015.8 |
| 20260831043509 | 26 | 210 | 0.0 | 0.0 | 0.00 | 0.00 | 0.00 | 80 | 1015.7 |
| 20260831043008 | 26 | 210 | 0.0 | 0.0 | 0.00 | 0.00 | 0.00 | 80 | 1015.6 |
| 20260831042514 | 26 | 210 | 0.0 | 0.0 | 0.00 | 0.00 | 0.00 | 79 | 1015.7 |
| 20260831042007 | 27 | 210 | 0.0 | 0.0 | 0.00 | 0.00 | 0.00 | 78 | 1015.6 |
| 20260831041507 | 27 | 210 | 0.0 | 0.0 | 0.00 | 0.00 | 0.00 | 78 | 1015.5 |
| 20260831041011 | 27 | 210 | 0.0 | 0.0 | 0.00 | 0.00 | 0.00 | 77 | 1015.5 |
| 20260831040505 | 27 | 210 | 0.0 | 0.0 | 0.00 | 0.00 | 0.00 | 77 | 1015.5 |
| 20260831040030 | 27 | 210 | 0.0 | 0.0 | 0.00 | 0.00 | 0.00 | 76 | 1015.5 |
| 20260831035513 | 27 | 210 | 0.0 | 0.0 | 0.00 | 0.00 | 0.00 | 76 | 1015.3 |
| 20260831035002 | 28 | 210 | 0.0 | 0.0 | 0.00 | 0.00 | 0.00 | 75 | 1015.2 |
| 20260831034526 | 28 | 210 | 0.0 | 0.0 | 0.00 | 0.00 | 0.00 | 75 | 1015.3 |
| 20260831034009 | 28 | 210 | 0.0 | 3.2 | 0.00 | 0.00 | 0.00 | 75 | 1015.2 |
| 20260831033503 | 28 | 210 | 0.0 | 3.2 | 0.00 | 0.00 | 0.00 | 74 | 1015.1 |
| 20260831033023 | 28 | 256 | 0.0 | 0.0 | 0.00 | 0.00 | 0.00 | 74 | 1015.1 |
| 20260831032504 | 28 | 256 | 0.0 | 0.0 | 0.00 | 0.00 | 0.00 | 73 | 1015.2 |
| 20260831032016 | 28 | 256 | 0.0 | 0.0 | 0.00 | 0.00 | 0.00 | 73 | 1015.1 |
| 20260831031518 | 28 | 256 | 0.0 | 1.6 | 0.00 | 0.00 | 0.00 | 73 | 1015.0 |
| 20260831031005 | 28 | 256 | 0.0 | 1.6 | 0.00 | 0.00 | 0.00 | 72 | 1015.0 |
| 20260831030513 | 28 | 255 | 0.0 | 1.6 | 0.00 | 0.00 | 0.00 | 72 | 1014.9 |
| 20260831030015 | 28 | 255 | 0.0 | 1.6 | 0.00 | 0.00 | 0.00 | 72 | 1014.9 |
| 20260831025504 | 28 | 254 | 0.0 | 0.0 | 0.00 | 0.00 | 0.00 | 72 | 1014.7 |
| 20260831025012 | 28 | 254 | 0.0 | 0.0 | 0.00 | 0.00 | 0.00 | 71 | 1014.7 |
| 20260831024515 | 28 | 255 | 0.0 | 0.0 | 0.00 | 0.00 | 0.00 | 70 | 1014.6 |
| 20260831024018 | 28 | 193 | 0.0 | 0.0 | 0.00 | 0.00 | 0.00 | 70 | 1014.5 |
| 20260831023511 | 28 | 193 | 0.0 | 0.0 | 0.00 | 0.00 | 0.00 | 70 | 1014.4 |
| 20260831023009 | 28 | 193 | 0.0 | 0.0 | 0.00 | 0.00 | 0.00 | 69 | 1014.3 |
| 20260831022513 | 28 | 193 | 0.0 | 0.0 | 0.00 | 0.00 | 0.00 | 68 | 1014.2 |
| 20260831022005 | 29 | 193 | 0.0 | 0.0 | 0.00 | 0.00 | 0.00 | 67 | 1014.2 |
| 20260831021531 | 29 | 79 | 0.0 | 1.6 | 0.00 | 0.00 | 0.00 | 67 | 1014.1 |
| 20260831021012 | 29 | 79 | 0.0 | 1.6 | 0.00 | 0.00 | 0.00 | 66 | 1014.1 |
| 20260831020508 | 29 | 79 | 0.0 | 1.6 | 0.00 | 0.00 | 0.00 | 66 | 1014.1 |
| 20260831020027 | 29 | 79 | 0.0 | 1.6 | 0.00 | 0.00 | 0.00 | 66 | 1014.0 |
| 20260831015508 | 29 | 79 | 0.0 | 0.0 | 0.00 | 0.00 | 0.00 | 66 | 1013.9 |
| 20260831015005 | 30 | 79 | 0.0 | 0.0 | 0.00 | 0.00 | 0.00 | 65 | 1013.9 |
| 20260831014529 | 30 | 79 | 0.0 | 0.0 | 0.00 | 0.00 | 0.00 | 64 | 1013.9 |
| 20260831014007 | 30 | 79 | 0.0 | 1.6 | 0.00 | 0.00 | 0.00 | 63 | 1013.9 |
| 20260831013514 | 30 | 79 | 0.0 | 1.6 | 0.00 | 0.00 | 0.00 | 62 | 1013.9 |
| 20260831013028 | 30 | 79 | 0.0 | 0.0 | 0.00 | 0.00 | 0.00 | 60 | 1013.9 |
| 20260831012505 | 31 | 79 | 0.0 | 0.0 | 0.00 | 0.00 | 0.00 | 59 | 1013.8 |
| 20260831012014 | 31 | 79 | 0.0 | 0.0 | 0.00 | 0.00 | 0.00 | 58 | 1013.8 |
| 20260831011533 | 31 | 79 | 0.0 | 0.0 | 0.00 | 0.00 | 0.00 | 58 | 1013.7 |
| 20260831011005 | 31 | 78 | 0.0 | 1.6 | 0.00 | 0.00 | 0.00 | 56 | 1013.6 |
| 20260831010514 | 31 | 78 | 0.0 | 1.6 | 0.00 | 0.00 | 0.00 | 57 | 1013.8 |
| 20260831010018 | 31 | 78 | 0.0 | 1.6 | 0.00 | 0.00 | 0.00 | 56 | 1013.8 |
| 20260831005516 | 32 | 89 | 0.0 | 1.6 | 0.00 | 0.00 | 0.00 | 55 | 1013.6 |
| 20260831005015 | 32 | 89 | 0.0 | 1.6 | 0.00 | 0.00 | 0.00 | 55 | 1013.6 |
| 20260831004516 | 32 | 89 | 0.0 | 0.0 | 0.00 | 0.00 | 0.00 | 56 | 1013.7 |
| 20260831004018 | 32 | 89 | 0.0 | 0.0 | 0.00 | 0.00 | 0.00 | 54 | 1013.6 |
| 20260831003510 | 33 | 89 | 0.0 | 0.0 | 0.00 | 0.00 | 0.00 | 53 | 1013.6 |
| 20260831003036 | 33 | 96 | 0.0 | 0.0 | 0.00 | 0.00 | 0.00 | 52 | 1013.6 |
| 20260831002511 | 33 | 92 | 0.0 | 1.6 | 0.00 | 0.00 | 0.00 | 52 | 1013.5 |
| 20260831002007 | 33 | 93 | 0.0 | 1.6 | 0.00 | 0.00 | 0.00 | 51 | 1013.5 |
| 20260831001529 | 33 | 107 | 0.0 | 1.6 | 0.00 | 0.00 | 0.00 | 50 | 1013.5 |
| 20260831001012 | 33 | 103 | 0.0 | 1.6 | 0.00 | 0.00 | 0.00 | 50 | 1013.6 |
| 20260831000507 | 34 | 124 | 0.0 | 1.6 | 0.00 | 0.00 | 0.00 | 48 | 1013.4 |
| 20260831000032 | 34 | 103 | 0.0 | 1.6 | 0.00 | 0.00 | 0.00 | 47 | 1013.4 |
| 20260830235512 | 34 | 164 | 0.0 | 0.0 | 0.00 | 0.00 | 0.00 | 45 | 1013.5 |
| 20260830235017 | 35 | 164 | 0.0 | 1.6 | 0.00 | 0.00 | 0.00 | 44 | 1013.4 |
| 20260830234537 | 35 | 207 | 0.0 | 1.6 | 0.00 | 0.00 | 0.00 | 45 | 1013.4 |
| 20260830234007 | 35 | 220 | 0.0 | 1.6 | 0.00 | 0.00 | 0.00 | 43 | 1013.5 |
| 20260830233514 | 35 | 114 | 0.0 | 3.2 | 0.00 | 0.00 | 0.00 | 43 | 1013.6 |
| 20260830233027 | 36 | 221 | 0.0 | 4.8 | 0.00 | 0.00 | 0.00 | 42 | 1013.5 |
| 20260830232508 | 36 | 143 | 0.0 | 4.8 | 0.00 | 0.00 | 0.00 | 44 | 1013.5 |
| 20260830232014 | 36 | 219 | 0.0 | 6.4 | 0.00 | 0.00 | 0.00 | 44 | 1013.5 |
| 20260830231522 | 36 | 78 | 0.0 | 6.4 | 0.00 | 0.00 | 0.00 | 43 | 1013.4 |
| 20260830231016 | 36 | 141 | 0.0 | 3.2 | 0.00 | 0.00 | 0.00 | 44 | 1013.6 |
| 20260830230515 | 36 | 214 | 0.0 | 3.2 | 0.00 | 0.00 | 0.00 | 42 | 1013.6 |
| 20260830230022 | 36 | 87 | 0.0 | 3.2 | 0.00 | 0.00 | 0.00 | 42 | 1013.5 |
| 20260830225515 | 37 | 219 | 0.0 | 3.2 | 0.00 | 0.00 | 0.00 | 41 | 1013.6 |
| 20260830225012 | 37 | 220 | 0.0 | 4.8 | 0.00 | 0.00 | 0.00 | 42 | 1013.6 |
| 20260830224529 | 37 | 255 | 0.0 | 4.8 | 0.00 | 0.00 | 0.00 | 41 | 1013.6 |
| 20260830224017 | 36 | 79 | 0.0 | 1.6 | 0.00 | 0.00 | 0.00 | 45 | 1013.6 |
| 20260830223514 | 36 | 63 | 0.0 | 1.6 | 0.00 | 0.00 | 0.00 | 44 | 1013.7 |
| 20260830223032 | 36 | 68 | 0.0 | 1.6 | 0.00 | 0.00 | 0.00 | 43 | 1013.7 |
| 20260830222513 | 36 | 96 | 0.0 | 3.2 | 0.00 | 0.00 | 0.00 | 43 | 1013.7 |
| 20260830222010 | 37 | 65 | 0.0 | 3.2 | 0.00 | 0.00 | 0.00 | 42 | 1013.6 |
| 20260830221543 | 37 | 115 | 0.0 | 3.2 | 0.00 | 0.00 | 0.00 | 42 | 1013.7 |
| 20260830221012 | 37 | 112 | 0.0 | 3.2 | 0.00 | 0.00 | 0.00 | 42 | 1013.7 |
| 20260830220519 | 37 | 43 | 0.0 | 1.6 | 0.00 | 0.00 | 0.00 | 44 | 1013.8 |
| 20260830220031 | 37 | 236 | 0.0 | 3.2 | 0.00 | 0.00 | 0.00 | 44 | 1013.8 |
| 20260830215513 | 36 | 45 | 1.6 | 4.8 | 0.00 | 0.00 | 0.00 | 43 | 1013.7 |
| 20260830215017 | 36 | 255 | 0.0 | 4.8 | 0.00 | 0.00 | 0.00 | 44 | 1013.8 |
| 20260830214528 | 36 | 232 | 0.0 | 3.2 | 0.00 | 0.00 | 0.00 | 44 | 1013.9 |
| 20260830214013 | 36 | 18 | 0.0 | 3.2 | 0.00 | 0.00 | 0.00 | 44 | 1014.0 |
| 20260830213516 | 36 | 90 | 0.0 | 3.2 | 0.00 | 0.00 | 0.00 | 44 | 1013.9 |
| 20260830213028 | 37 | 72 | 1.6 | 6.4 | 0.00 | 0.00 | 0.00 | 43 | 1013.9 |
| 20260830212519 | 37 | 120 | 1.6 | 6.4 | 0.00 | 0.00 | 0.00 | 43 | 1014.1 |
| 20260830212016 | 37 | 94 | 0.0 | 4.8 | 0.00 | 0.00 | 0.00 | 43 | 1014.1 |
| 20260830211504 | 37 | 85 | 0.0 | 4.8 | 0.00 | 0.00 | 0.00 | 44 | 1014.0 |
| 20260830211004 | 37 | 90 | 0.0 | 3.2 | 0.00 | 0.00 | 0.00 | 44 | 1014.2 |
| 20260830210503 | 37 | 120 | 0.0 | 3.2 | 0.00 | 0.00 | 0.00 | 43 | 1014.2 |
| 20260830210003 | 37 | 97 | 0.0 | 4.8 | 0.00 | 0.00 | 0.00 | 44 | 1014.3 |
| 20260830205503 | 38 | 207 | 0.0 | 4.8 | 0.00 | 0.00 | 0.00 | 43 | 1014.2 |
| 20260830205004 | 38 | 226 | 0.0 | 6.4 | 0.00 | 0.00 | 0.00 | 41 | 1014.5 |
| 20260830204508 | 38 | 96 | 1.6 | 6.4 | 0.00 | 0.00 | 0.00 | 42 | 1014.5 |
| 20260830204002 | 38 | 220 | 0.0 | 6.4 | 0.00 | 0.00 | 0.00 | 42 | 1014.5 |
| 20260830203502 | 38 | 113 | 0.0 | 4.8 | 0.00 | 0.00 | 0.00 | 42 | 1014.6 |
| 20260830203008 | 38 | 151 | 0.0 | 3.2 | 0.00 | 0.00 | 0.00 | 43 | 1014.6 |
| 20260830202502 | 37 | 233 | 0.0 | 3.2 | 0.00 | 0.00 | 0.00 | 45 | 1014.7 |
| 20260830202002 | 37 | 96 | 0.0 | 3.2 | 0.00 | 0.00 | 0.00 | 44 | 1014.7 |
| 20260830201507 | 37 | 231 | 0.0 | 3.2 | 0.00 | 0.00 | 0.00 | 44 | 1014.9 |
| 20260830201001 | 37 | 117 | 0.0 | 3.2 | 0.00 | 0.00 | 0.00 | 44 | 1014.9 |
| 20260830200501 | 37 | 108 | 0.0 | 3.2 | 0.00 | 0.00 | 0.00 | 45 | 1015.0 |
| 20260830200017 | 37 | 134 | 0.0 | 4.8 | 0.00 | 0.00 | 0.00 | 44 | 1015.1 |
| 20260830195502 | 36 | 117 | 0.0 | 6.4 | 0.00 | 0.00 | 0.00 | 47 | 1015.3 |
| 20260830195005 | 37 | 68 | 3.2 | 6.4 | 0.00 | 0.00 | 0.00 | 45 | 1015.4 |
| 20260830194505 | 36 | 154 | 0.0 | 4.8 | 0.00 | 0.00 | 0.00 | 46 | 1015.6 |
| 20260830194002 | 36 | 93 | 3.2 | 12.9 | 0.00 | 0.00 | 0.00 | 45 | 1015.7 |
| 20260830193501 | 37 | 122 | 1.6 | 12.9 | 0.00 | 0.00 | 0.00 | 44 | 1015.8 |
| 20260830193003 | 37 | 56 | 0.0 | 3.2 | 0.00 | 0.00 | 0.00 | 44 | 1015.8 |
| 20260830192501 | 37 | 81 | 0.0 | 6.4 | 0.00 | 0.00 | 0.00 | 44 | 1015.9 |
| 20260830192001 | 37 | 181 | 0.0 | 6.4 | 0.00 | 0.00 | 0.00 | 43 | 1015.9 |
| 20260830191503 | 36 | 158 | 0.0 | 3.2 | 0.00 | 0.00 | 0.00 | 46 | 1015.9 |
| 20260830191005 | 36 | 317 | 0.0 | 3.2 | 0.00 | 0.00 | 0.00 | 50 | 1016.0 |
| 20260830190503 | 35 | 341 | 0.0 | 3.2 | 0.00 | 0.00 | 0.00 | 50 | 1016.1 |
| 20260830190030 | 36 | 79 | 0.0 | 4.8 | 0.00 | 0.00 | 0.00 | 50 | 1016.1 |
| 20260830185506 | 36 | 103 | 1.6 | 4.8 | 0.00 | 0.00 | 0.00 | 50 | 1016.2 |
| 20260830185003 | 35 | 128 | 0.0 | 3.2 | 0.00 | 0.00 | 0.00 | 50 | 1016.2 |
| 20260830184512 | 35 | 143 | 1.6 | 3.2 | 0.00 | 0.00 | 0.00 | 50 | 1016.3 |
| 20260830184005 | 35 | 69 | 0.0 | 3.2 | 0.00 | 0.00 | 0.00 | 50 | 1016.4 |
| 20260830183501 | 35 | 278 | 0.0 | 8.0 | 0.00 | 0.00 | 0.00 | 49 | 1016.6 |
| 20260830183012 | 36 | 189 | 3.2 | 8.0 | 0.00 | 0.00 | 0.00 | 48 | 1016.7 |
| 20260830182505 | 36 | 244 | 0.0 | 6.4 | 0.00 | 0.00 | 0.00 | 49 | 1016.7 |
| 20260830182007 | 36 | 225 | 0.0 | 6.4 | 0.00 | 0.00 | 0.00 | 51 | 1016.8 |
| 20260830181510 | 36 | 103 | 1.6 | 4.8 | 0.00 | 0.00 | 0.00 | 49 | 1016.8 |
| 20260830181002 | 36 | 280 | 0.0 | 1.6 | 0.00 | 0.00 | 0.00 | 51 | 1017.0 |
| 20260830180511 | 35 | 232 | 0.0 | 4.8 | 0.00 | 0.00 | 0.00 | 53 | 1017.0 |
| 20260830180009 | 34 | 243 | 0.0 | 4.8 | 0.00 | 0.00 | 0.00 | 54 | 1017.1 |
| 20260830175505 | 35 | 97 | 0.0 | 6.4 | 0.00 | 0.00 | 0.00 | 55 | 1017.2 |
| 20260830175007 | 34 | 212 | 1.6 | 6.4 | 0.00 | 0.00 | 0.00 | 55 | 1017.3 |
| 20260830174510 | 34 | 141 | 0.0 | 3.2 | 0.00 | 0.00 | 0.00 | 55 | 1017.4 |
| 20260830174006 | 35 | 118 | 0.0 | 1.6 | 0.00 | 0.00 | 0.00 | 52 | 1017.4 |
| 20260830173503 | 34 | 126 | 0.0 | 1.6 | 0.00 | 0.00 | 0.00 | 55 | 1017.5 |
| 20260830173003 | 34 | 276 | 0.0 | 4.8 | 0.00 | 0.00 | 0.00 | 54 | 1017.7 |
| 20260830172508 | 33 | 262 | 0.0 | 4.8 | 0.00 | 0.00 | 0.00 | 57 | 1017.7 |
| 20260830172003 | 33 | 203 | 0.0 | 4.8 | 0.00 | 0.00 | 0.00 | 58 | 1017.6 |
| 20260830171516 | 33 | 59 | 0.0 | 4.8 | 0.00 | 0.00 | 0.00 | 58 | 1017.7 |
| 20260830171006 | 34 | 274 | 1.6 | 4.8 | 0.00 | 0.00 | 0.00 | 57 | 1017.7 |
| 20260830170503 | 33 | 229 | 0.0 | 4.8 | 0.00 | 0.00 | 0.00 | 58 | 1017.6 |
| 20260830170015 | 33 | 146 | 0.0 | 4.8 | 0.00 | 0.00 | 0.00 | 59 | 1017.8 |
| 20260830165505 | 33 | 245 | 1.6 | 4.8 | 0.00 | 0.00 | 0.00 | 59 | 1017.8 |
| 20260830165003 | 33 | 183 | 0.0 | 4.8 | 0.00 | 0.00 | 0.00 | 63 | 1017.8 |
| 20260830164516 | 32 | 243 | 0.0 | 1.6 | 0.00 | 0.00 | 0.00 | 66 | 1017.9 |
| 20260830164006 | 32 | 300 | 0.0 | 1.6 | 0.00 | 0.00 | 0.00 | 65 | 1017.9 |
| 20260830163508 | 31 | 208 | 0.0 | 1.6 | 0.00 | 0.00 | 0.00 | 66 | 1017.8 |
| 20260830163014 | 31 | 217 | 0.0 | 1.6 | 0.00 | 0.00 | 0.00 | 70 | 1017.9 |
| 20260830162504 | 31 | 215 | 0.0 | 3.2 | 0.00 | 0.00 | 0.00 | 70 | 1017.8 |
| 20260830162007 | 31 | 228 | 0.0 | 3.2 | 0.00 | 0.00 | 0.00 | 71 | 1017.9 |
| 20260830161511 | 30 | 228 | 0.0 | 3.2 | 0.00 | 0.00 | 0.00 | 71 | 1018.0 |
| 20260830161004 | 30 | 205 | 0.0 | 3.2 | 0.00 | 0.00 | 0.00 | 71 | 1017.9 |
| 20260830160509 | 31 | 155 | 0.0 | 1.6 | 0.00 | 0.00 | 0.00 | 72 | 1018.0 |
| 20260830160008 | 31 | 214 | 0.0 | 1.6 | 0.00 | 0.00 | 0.00 | 71 | 1018.0 |
| 20260830155507 | 30 | 209 | 0.0 | 1.6 | 0.00 | 0.00 | 0.00 | 73 | 1018.0 |
| 20260830155007 | 30 | 245 | 0.0 | 1.6 | 0.00 | 0.00 | 0.00 | 77 | 1018.1 |
| 20260830154507 | 30 | 100 | 0.0 | 1.6 | 0.00 | 0.00 | 0.00 | 76 | 1018.0 |
| 20260830154009 | 30 | 209 | 0.0 | 0.0 | 0.00 | 0.00 | 0.00 | 77 | 1017.9 |
| 20260830153505 | 29 | 199 | 0.0 | 6.4 | 0.00 | 0.00 | 0.00 | 78 | 1018.0 |
| 20260830153020 | 29 | 200 | 0.0 | 6.4 | 0.00 | 0.00 | 0.00 | 79 | 1017.9 |
| 20260830152511 | 28 | 352 | 0.0 | 1.6 | 0.00 | 0.00 | 0.00 | 81 | 1017.9 |
| 20260830152007 | 28 | 271 | 0.0 | 3.2 | 0.00 | 0.00 | 0.00 | 81 | 1017.9 |
| 20260830151518 | 28 | 233 | 0.0 | 3.2 | 0.00 | 0.00 | 0.00 | 83 | 1017.8 |
| 20260830151008 | 28 | 206 | 0.0 | 4.8 | 0.00 | 0.00 | 0.00 | 85 | 1017.8 |
| 20260830150505 | 28 | 252 | 0.0 | 4.8 | 0.00 | 0.00 | 0.00 | 83 | 1017.8 |
| 20260830150020 | 28 | 252 | 0.0 | 1.6 | 0.00 | 0.00 | 0.00 | 84 | 1017.8 |
| 20260830145506 | 27 | 224 | 0.0 | 1.6 | 0.00 | 0.00 | 0.00 | 84 | 1017.9 |
| 20260830145010 | 27 | 215 | 0.0 | 1.6 | 0.00 | 0.00 | 0.00 | 86 | 1017.9 |
| 20260830144520 | 27 | 212 | 0.0 | 1.6 | 0.00 | 0.00 | 0.00 | 89 | 1017.9 |
| 20260830144006 | 27 | 220 | 0.0 | 1.6 | 0.00 | 0.00 | 0.00 | 90 | 1017.8 |
| 20260830143512 | 26 | 219 | 0.0 | 3.2 | 0.00 | 0.00 | 0.00 | 91 | 1017.9 |
| 20260830143016 | 26 | 136 | 0.0 | 4.8 | 0.00 | 0.00 | 0.00 | 92 | 1017.9 |
| 20260830142503 | 26 | 215 | 0.0 | 4.8 | 0.00 | 0.00 | 0.00 | 93 | 1017.9 |
| 20260830142013 | 26 | 211 | 0.0 | 1.6 | 0.00 | 0.00 | 0.00 | 94 | 1017.9 |
| 20260830141514 | 26 | 211 | 0.0 | 1.6 | 0.00 | 0.00 | 0.00 | 95 | 1017.9 |
| 20260830141011 | 26 | 211 | 0.0 | 0.0 | 0.00 | 0.00 | 0.00 | 95 | 1017.9 |
| 20260830140515 | 25 | 196 | 0.0 | 0.0 | 0.00 | 0.00 | 0.00 | 96 | 1017.8 |
| 20260830140008 | 25 | 232 | 0.0 | 1.6 | 0.00 | 0.00 | 0.00 | 96 | 1017.8 |
| 20260830135513 | 25 | 223 | 0.0 | 1.6 | 0.00 | 0.00 | 0.00 | 96 | 1017.8 |
| 20260830135006 | 25 | 207 | 0.0 | 3.2 | 0.00 | 0.00 | 0.00 | 96 | 1017.8 |
| 20260830134531 | 25 | 207 | 0.0 | 3.2 | 0.00 | 0.00 | 0.00 | 97 | 1017.8 |
| 20260830134013 | 25 | 251 | 0.0 | 0.0 | 0.00 | 0.00 | 0.00 | 97 | 1017.7 |
| 20260830133508 | 25 | 251 | 0.0 | 0.0 | 0.00 | 0.00 | 0.00 | 97 | 1017.7 |
| 20260830133025 | 24 | 251 | 0.0 | 0.0 | 0.00 | 0.00 | 0.00 | 97 | 1017.7 |
| 20260830132509 | 24 | 251 | 0.0 | 0.0 | 0.00 | 0.00 | 0.00 | 97 | 1017.6 |
| 20260830132004 | 23 | 251 | 0.0 | 0.0 | 0.00 | 0.00 | 0.00 | 97 | 1017.6 |
| 20260830131529 | 23 | 250 | 0.0 | 0.0 | 0.00 | 0.00 | 0.00 | 96 | 1017.6 |
| 20260830131007 | 23 | 251 | 0.0 | 0.0 | 0.00 | 0.00 | 0.00 | 96 | 1017.6 |
| 20260830130513 | 23 | 251 | 0.0 | 0.0 | 0.00 | 0.00 | 0.00 | 96 | 1017.4 |
| 20260830130037 | 23 | 251 | 0.0 | 0.0 | 0.00 | 0.00 | 0.00 | 96 | 1017.4 |
| 20260830125503 | 23 | 251 | 0.0 | 0.0 | 0.00 | 0.00 | 0.00 | 96 | 1017.5 |
| 20260830125012 | 23 | 251 | 0.0 | 0.0 | 0.00 | 0.00 | 0.00 | 96 | 1017.4 |
| 20260830124522 | 22 | 250 | 0.0 | 0.0 | 0.00 | 0.00 | 0.00 | 96 | 1017.4 |
| 20260830124003 | 22 | 251 | 0.0 | 0.0 | 0.00 | 0.00 | 0.00 | 96 | 1017.3 |
| 20260830123513 | 22 | 251 | 0.0 | 0.0 | 0.00 | 0.00 | 0.00 | 96 | 1017.2 |
| 20260830123016 | 22 | 251 | 0.0 | 0.0 | 0.00 | 0.00 | 0.00 | 96 | 1017.2 |
| 20260830122512 | 22 | 251 | 0.0 | 0.0 | 0.00 | 0.00 | 0.00 | 96 | 1017.2 |
| 20260830122012 | 22 | 251 | 0.0 | 0.0 | 0.00 | 0.00 | 0.00 | 95 | 1017.2 |
| 20260830121512 | 22 | 251 | 0.0 | 0.0 | 0.00 | 0.00 | 0.00 | 95 | 1017.1 |
| 20260830121004 | 22 | 251 | 0.0 | 0.0 | 0.00 | 0.00 | 0.00 | 95 | 1017.2 |
| 20260830120504 | 22 | 251 | 0.0 | 0.0 | 0.00 | 0.00 | 0.00 | 95 | 1017.1 |
| 20260830120011 | 22 | 251 | 0.0 | 0.0 | 0.00 | 0.00 | 0.00 | 95 | 1017.0 |
| 20260830115504 | 22 | 251 | 0.0 | 0.0 | 0.00 | 0.00 | 0.00 | 95 | 1017.0 |
| 20260830115010 | 22 | 251 | 0.0 | 0.0 | 0.00 | 0.00 | 0.00 | 95 | 1017.0 |
| 20260830114509 | 23 | 251 | 0.0 | 0.0 | 0.00 | 0.00 | 0.00 | 95 | 1017.0 |
| 20260830114006 | 23 | 251 | 0.0 | 0.0 | 0.00 | 0.00 | 0.00 | 95 | 1017.0 |
| 20260830113505 | 23 | 251 | 0.0 | 0.0 | 0.00 | 0.00 | 0.00 | 95 | 1016.9 |
| 20260830113006 | 22 | 251 | 0.0 | 0.0 | 0.00 | 0.00 | 0.00 | 95 | 1016.9 |
| 20260830112502 | 23 | 251 | 0.0 | 0.0 | 0.00 | 0.00 | 0.00 | 95 | 1016.8 |
| 20260830112006 | 23 | 250 | 0.0 | 0.0 | 0.00 | 0.00 | 0.00 | 95 | 1016.7 |
| 20260830111504 | 23 | 251 | 0.0 | 0.0 | 0.00 | 0.00 | 0.00 | 95 | 1016.7 |
| 20260830111010 | 23 | 251 | 0.0 | 0.0 | 0.00 | 0.00 | 0.00 | 95 | 1016.7 |
| 20260830110505 | 23 | 251 | 0.0 | 0.0 | 0.00 | 0.00 | 0.00 | 95 | 1016.6 |
| 20260830110004 | 23 | 251 | 0.0 | 0.0 | 0.00 | 0.00 | 0.00 | 95 | 1016.7 |
| 20260830105508 | 23 | 250 | 0.0 | 0.0 | 0.00 | 0.00 | 0.00 | 95 | 1016.6 |
| 20260830105003 | 23 | 251 | 0.0 | 0.0 | 0.00 | 0.00 | 0.00 | 95 | 1016.5 |
| 20260830104512 | 23 | 251 | 0.0 | 0.0 | 0.00 | 0.00 | 0.00 | 95 | 1016.4 |
| 20260830104011 | 23 | 251 | 0.0 | 0.0 | 0.00 | 0.00 | 0.00 | 95 | 1016.4 |
| 20260830103504 | 23 | 251 | 0.0 | 0.0 | 0.00 | 0.00 | 0.00 | 95 | 1016.3 |
| 20260830103017 | 23 | 250 | 0.0 | 0.0 | 0.00 | 0.00 | 0.00 | 94 | 1016.4 |
| 20260830102507 | 23 | 250 | 0.0 | 0.0 | 0.00 | 0.00 | 0.00 | 94 | 1016.3 |
| 20260830102001 | 23 | 251 | 0.0 | 0.0 | 0.00 | 0.00 | 0.00 | 95 | 1016.3 |
| 20260830101516 | 23 | 251 | 0.0 | 0.0 | 0.00 | 0.00 | 0.00 | 94 | 1016.5 |
| 20260830101004 | 23 | 251 | 0.0 | 0.0 | 0.00 | 0.00 | 0.00 | 94 | 1016.3 |
| 20260830100502 | 23 | 250 | 0.0 | 0.0 | 0.00 | 0.00 | 0.00 | 94 | 1016.3 |
| 20260830100013 | 23 | 251 | 0.0 | 0.0 | 0.00 | 0.00 | 0.00 | 94 | 1016.3 |
| 20260830095503 | 23 | 251 | 0.0 | 0.0 | 0.00 | 0.00 | 0.00 | 94 | 1016.2 |
| 20260830095012 | 23 | 251 | 0.0 | 0.0 | 0.00 | 0.00 | 0.00 | 94 | 1016.2 |
| 20260830094512 | 23 | 251 | 0.0 | 0.0 | 0.00 | 0.00 | 0.00 | 94 | 1016.2 |
| 20260830094005 | 23 | 251 | 0.0 | 0.0 | 0.00 | 0.00 | 0.00 | 94 | 1016.2 |
| 20260830093509 | 23 | 251 | 0.0 | 0.0 | 0.00 | 0.00 | 0.00 | 94 | 1016.2 |
| 20260830093007 | 23 | 251 | 0.0 | 0.0 | 0.00 | 0.00 | 0.00 | 94 | 1016.1 |
| 20260830092512 | 23 | 250 | 0.0 | 0.0 | 0.00 | 0.00 | 0.00 | 94 | 1016.2 |
| 20260830092006 | 23 | 251 | 0.0 | 0.0 | 0.00 | 0.00 | 0.00 | 94 | 1016.1 |
| 20260830091506 | 24 | 251 | 0.0 | 0.0 | 0.00 | 0.00 | 0.00 | 94 | 1016.1 |
| 20260830091010 | 23 | 251 | 0.0 | 0.0 | 0.00 | 0.00 | 0.00 | 94 | 1016.1 |
| 20260830090506 | 24 | 251 | 0.0 | 0.0 | 0.00 | 0.00 | 0.00 | 94 | 1016.1 |
| 20260830090004 | 24 | 251 | 0.0 | 0.0 | 0.00 | 0.00 | 0.00 | 94 | 1016.2 |
| 20260830085511 | 24 | 251 | 0.0 | 0.0 | 0.00 | 0.00 | 0.00 | 94 | 1016.1 |
| 20260830085003 | 24 | 251 | 0.0 | 0.0 | 0.00 | 0.00 | 0.00 | 94 | 1016.1 |
| 20260830084526 | 24 | 250 | 0.0 | 0.0 | 0.00 | 0.00 | 0.00 | 94 | 1016.1 |
| 20260830084008 | 24 | 251 | 0.0 | 0.0 | 0.00 | 0.00 | 0.00 | 94 | 1016.1 |
| 20260830083503 | 24 | 251 | 0.0 | 0.0 | 0.00 | 0.00 | 0.00 | 94 | 1016.1 |
| 20260830083035 | 24 | 251 | 0.0 | 0.0 | 0.00 | 0.00 | 0.00 | 93 | 1016.1 |
| 20260830082505 | 24 | 251 | 0.0 | 0.0 | 0.00 | 0.00 | 0.00 | 93 | 1016.2 |
| 20260830082003 | 24 | 251 | 0.0 | 0.0 | 0.00 | 0.00 | 0.00 | 93 | 1016.2 |
| 20260830081516 | 24 | 251 | 0.0 | 0.0 | 0.00 | 0.00 | 0.00 | 93 | 1016.3 |
| 20260830081003 | 24 | 251 | 0.0 | 0.0 | 0.00 | 0.00 | 0.00 | 93 | 1016.2 |
| 20260830080513 | 24 | 251 | 0.0 | 0.0 | 0.00 | 0.00 | 0.00 | 93 | 1016.3 |
| 20260830080014 | 24 | 251 | 0.0 | 0.0 | 0.00 | 0.00 | 0.00 | 93 | 1016.3 |
| 20260830075504 | 24 | 251 | 0.0 | 0.0 | 0.00 | 0.00 | 0.00 | 92 | 1016.3 |
| 20260830075012 | 24 | 251 | 0.0 | 0.0 | 0.00 | 0.00 | 0.00 | 92 | 1016.4 |
| 20260830074510 | 24 | 251 | 0.0 | 0.0 | 0.00 | 0.00 | 0.00 | 92 | 1016.3 |
| 20260830074003 | 24 | 251 | 0.0 | 0.0 | 0.00 | 0.00 | 0.00 | 92 | 1016.4 |
| 20260830073509 | 24 | 251 | 0.0 | 0.0 | 0.00 | 0.00 | 0.00 | 91 | 1016.4 |
| 20260830073008 | 24 | 251 | 0.0 | 0.0 | 0.00 | 0.00 | 0.00 | 91 | 1016.5 |
| 20260830072519 | 25 | 251 | 0.0 | 0.0 | 0.00 | 0.00 | 0.00 | 91 | 1016.5 |
| 20260830072007 | 25 | 251 | 0.0 | 0.0 | 0.00 | 0.00 | 0.00 | 91 | 1016.5 |
| 20260830071507 | 25 | 251 | 0.0 | 0.0 | 0.00 | 0.00 | 0.00 | 91 | 1016.5 |
| 20260830071009 | 25 | 251 | 0.0 | 0.0 | 0.00 | 0.00 | 0.00 | 91 | 1016.5 |
| 20260830070503 | 25 | 251 | 0.0 | 0.0 | 0.00 | 0.00 | 0.00 | 91 | 1016.4 |
| 20260830070027 | 25 | 251 | 0.0 | 0.0 | 0.00 | 0.00 | 0.00 | 91 | 1016.4 |
| 20260830065507 | 25 | 251 | 0.0 | 0.0 | 0.00 | 0.00 | 0.00 | 90 | 1016.4 |
| 20260830065004 | 25 | 251 | 0.0 | 0.0 | 0.00 | 0.00 | 0.00 | 90 | 1016.5 |
| 20260830064527 | 25 | 251 | 0.0 | 0.0 | 0.00 | 0.00 | 0.00 | 90 | 1016.5 |
| 20260830064008 | 25 | 251 | 0.0 | 0.0 | 0.00 | 0.00 | 0.00 | 90 | 1016.5 |
| 20260830063505 | 25 | 250 | 0.0 | 0.0 | 0.00 | 0.00 | 0.00 | 89 | 1016.4 |
| 20260830063023 | 25 | 251 | 0.0 | 0.0 | 0.00 | 0.00 | 0.00 | 89 | 1016.4 |
| 20260830062507 | 25 | 251 | 0.0 | 0.0 | 0.00 | 0.00 | 0.00 | 89 | 1016.4 |
| 20260830062016 | 25 | 251 | 0.0 | 0.0 | 0.00 | 0.00 | 0.00 | 89 | 1016.4 |
| 20260830061525 | 25 | 251 | 0.0 | 0.0 | 0.00 | 0.00 | 0.00 | 88 | 1016.5 |
| 20260830061017 | 25 | 251 | 0.0 | 0.0 | 0.00 | 0.00 | 0.00 | 88 | 1016.4 |
| 20260830060512 | 25 | 251 | 0.0 | 0.0 | 0.00 | 0.00 | 0.00 | 88 | 1016.5 |
| 20260830060015 | 25 | 251 | 0.0 | 0.0 | 0.00 | 0.00 | 0.00 | 87 | 1016.4 |
| 20260830055515 | 25 | 251 | 0.0 | 0.0 | 0.00 | 0.00 | 0.00 | 87 | 1016.4 |
| 20260830055013 | 26 | 251 | 0.0 | 0.0 | 0.00 | 0.00 | 0.00 | 86 | 1016.4 |
| 20260830054539 | 26 | 251 | 0.0 | 0.0 | 0.00 | 0.00 | 0.00 | 86 | 1016.4 |
| 20260830054015 | 26 | 251 | 0.0 | 0.0 | 0.00 | 0.00 | 0.00 | 85 | 1016.4 |
| 20260830053511 | 26 | 251 | 0.0 | 0.0 | 0.00 | 0.00 | 0.00 | 85 | 1016.4 |
| 20260830053032 | 26 | 251 | 0.0 | 0.0 | 0.00 | 0.00 | 0.00 | 84 | 1016.4 |
| 20260830052510 | 26 | 251 | 0.0 | 0.0 | 0.00 | 0.00 | 0.00 | 84 | 1016.4 |
| 20260830052009 | 26 | 251 | 0.0 | 0.0 | 0.00 | 0.00 | 0.00 | 84 | 1016.5 |
| 20260830051531 | 26 | 251 | 0.0 | 0.0 | 0.00 | 0.00 | 0.00 | 83 | 1016.4 |